MARCH LFMN-LIMJ

Flight info

Callsign MARCH
Flight time 0h 42m
Altitude 20000
Route BASIP Y15 EGHIN/N0453F180 Y15 ANAKI/N0446F170 L50 IXITO
Aircraft C750/M-SBDE3FGHRWXY/S

Departure

Time 2026-04-21 20:17
Airport Nice-Côte d'Azur Airport (LFMN)

Arrival

Time 2026-04-21 21:00
Airport Genoa Cristoforo Colombo Airport (LIMJ)
Time Latitude Longitude Altitude Speed Heading
2026-04-21 19:55 43.66896 7.22342 18 ft 0 kts 136°
2026-04-21 20:06 43.66894 7.22345 18 ft 2 kts 136°
2026-04-21 20:07 43.66883 7.22359 20 ft 2 kts 137°
2026-04-21 20:07 43.66860 7.22368 18 ft 7 kts 176°
2026-04-21 20:07 43.66827 7.22348 20 ft 9 kts 222°
2026-04-21 20:07 43.66760 7.22256 18 ft 10 kts 224°
2026-04-21 20:08 43.66712 7.22189 18 ft 10 kts 223°
2026-04-21 20:08 43.66666 7.22126 18 ft 9 kts 225°
2026-04-21 20:08 43.66615 7.22057 18 ft 14 kts 224°
2026-04-21 20:08 43.66546 7.21962 18 ft 13 kts 224°
2026-04-21 20:09 43.66470 7.21857 18 ft 18 kts 225°
2026-04-21 20:09 43.66382 7.21736 18 ft 18 kts 225°
2026-04-21 20:09 43.66296 7.21617 18 ft 17 kts 225°
2026-04-21 20:09 43.66214 7.21504 18 ft 16 kts 225°
2026-04-21 20:10 43.66136 7.21398 18 ft 15 kts 224°
2026-04-21 20:10 43.66050 7.21280 18 ft 21 kts 225°
2026-04-21 20:10 43.65950 7.21142 18 ft 20 kts 225°
2026-04-21 20:10 43.65855 7.21011 18 ft 18 kts 225°
2026-04-21 20:11 43.65768 7.20891 19 ft 17 kts 225°
2026-04-21 20:11 43.65680 7.20771 18 ft 20 kts 225°
2026-04-21 20:11 43.65589 7.20646 18 ft 18 kts 225°
2026-04-21 20:11 43.65508 7.20534 18 ft 13 kts 225°
2026-04-21 20:12 43.65445 7.20449 19 ft 12 kts 224°
2026-04-21 20:12 43.65386 7.20369 19 ft 10 kts 225°
2026-04-21 20:12 43.65356 7.20326 19 ft 9 kts 225°
2026-04-21 20:12 43.65275 7.20304 20 ft 11 kts 153°
2026-04-21 20:13 43.65221 7.20375 19 ft 10 kts 135°
2026-04-21 20:13 43.65168 7.20447 19 ft 11 kts 136°
2026-04-21 20:13 43.65103 7.20479 19 ft 12 kts 187°
2026-04-21 20:13 43.65032 7.20416 19 ft 12 kts 226°
2026-04-21 20:14 43.64975 7.20338 19 ft 11 kts 225°
2026-04-21 20:14 43.64919 7.20262 19 ft 11 kts 225°
2026-04-21 20:14 43.64866 7.20189 19 ft 10 kts 225°
2026-04-21 20:14 43.64813 7.20133 19 ft 9 kts 191°
2026-04-21 20:15 43.64757 7.20161 19 ft 9 kts 136°
2026-04-21 20:15 43.64715 7.20221 19 ft 8 kts 126°
2026-04-21 20:15 43.64703 7.20290 19 ft 6 kts 64°
2026-04-21 20:15 43.64709 7.20301 19 ft 0 kts 44°
2026-04-21 20:17 43.64732 7.20331 19 ft 26 kts 44°
2026-04-21 20:17 43.65148 7.20901 19 ft 137 kts 45°
2026-04-21 20:17 43.65921 7.21984 273 ft 167 kts 46°
2026-04-21 20:17 43.66666 7.23177 919 ft 166 kts 56°
2026-04-21 20:18 43.66999 7.24218 1164 ft 191 kts 77°
2026-04-21 20:18 43.66807 7.26178 1702 ft 218 kts 115°
2026-04-21 20:18 43.65922 7.27785 2966 ft 208 kts 133°
2026-04-21 20:18 43.64909 7.29239 3980 ft 215 kts 133°
2026-04-21 20:19 43.63897 7.30803 4947 ft 224 kts 129°
2026-04-21 20:19 43.63391 7.32887 5699 ft 236 kts 88°
2026-04-21 20:19 43.63765 7.35077 6603 ft 239 kts 68°
2026-04-21 20:19 43.64377 7.37251 7567 ft 243 kts 65°
2026-04-21 20:20 43.64981 7.39445 8609 ft 248 kts 65°
2026-04-21 20:20 43.65571 7.41701 9590 ft 255 kts 65°
2026-04-21 20:20 43.66194 7.44077 10003 ft 265 kts 65°
2026-04-21 20:20 43.66817 7.46446 9984 ft 263 kts 65°
2026-04-21 20:21 43.67435 7.48797 9986 ft 261 kts 65°
2026-04-21 20:21 43.68104 7.51291 9995 ft 293 kts 64°
2026-04-21 20:21 43.68862 7.54091 10008 ft 331 kts 65°
2026-04-21 20:21 43.69698 7.57254 10010 ft 364 kts 66°
2026-04-21 20:22 43.70576 7.60602 10010 ft 377 kts 67°
2026-04-21 20:22 43.72406 7.67518 10007 ft 385 kts 66°
2026-04-21 20:22 43.73406 7.70919 9976 ft 384 kts 59°
2026-04-21 20:23 43.74992 7.73850 9994 ft 379 kts 45°
2026-04-21 20:23 43.76735 7.76551 10019 ft 379 kts 44°
2026-04-21 20:23 43.78494 7.79290 10014 ft 377 kts 45°
2026-04-21 20:23 43.80215 7.81999 10015 ft 377 kts 45°
2026-04-21 20:24 43.81973 7.84765 10540 ft 380 kts 45°
2026-04-21 20:24 43.83715 7.87499 11251 ft 383 kts 44°
2026-04-21 20:24 43.85487 7.90279 11885 ft 389 kts 44°
2026-04-21 20:24 43.87276 7.93093 12516 ft 393 kts 44°
2026-04-21 20:25 43.89105 7.95977 13130 ft 399 kts 44°
2026-04-21 20:25 43.90954 7.98894 13813 ft 401 kts 44°
2026-04-21 20:25 43.92802 8.01810 14353 ft 406 kts 44°
2026-04-21 20:25 43.94678 8.04775 14927 ft 408 kts 43°
2026-04-21 20:26 43.96549 8.07732 15572 ft 409 kts 43°
2026-04-21 20:26 43.98419 8.10686 16015 ft 415 kts 43°
2026-04-21 20:26 44.00307 8.13676 16009 ft 415 kts 43°
2026-04-21 20:26 44.02215 8.16712 16007 ft 415 kts 44°
2026-04-21 20:27 44.04090 8.19708 16017 ft 416 kts 44°
2026-04-21 20:27 44.05699 8.22944 15707 ft 391 kts 55°
2026-04-21 20:27 44.06813 8.26250 15360 ft 368 kts 63°
2026-04-21 20:27 44.07711 8.29435 15179 ft 342 kts 63°
2026-04-21 20:28 44.08581 8.32406 15009 ft 325 kts 62°
2026-04-21 20:28 44.09297 8.35436 14996 ft 334 kts 75°
2026-04-21 20:28 44.09658 8.38627 15023 ft 337 kts 76°
2026-04-21 20:28 44.10087 8.41855 15026 ft 338 kts 75°
2026-04-21 20:29 44.10464 8.45062 15029 ft 339 kts 77°
2026-04-21 20:29 44.10792 8.48344 15037 ft 340 kts 78°
2026-04-21 20:29 44.11132 8.51579 15027 ft 340 kts 77°
2026-04-21 20:29 44.11663 8.54747 15012 ft 337 kts 70°
2026-04-21 20:30 44.12268 8.57927 15011 ft 338 kts 71°
2026-04-21 20:30 44.12833 8.61073 15013 ft 338 kts 71°
2026-04-21 20:30 44.13401 8.64235 15014 ft 337 kts 71°
2026-04-21 20:30 44.13990 8.67422 15015 ft 338 kts 71°
2026-04-21 20:31 44.14567 8.70554 15019 ft 338 kts 71°
2026-04-21 20:31 44.15148 8.73752 15025 ft 336 kts 71°
2026-04-21 20:31 44.15715 8.76876 15025 ft 336 kts 71°
2026-04-21 20:31 44.16290 8.80033 15026 ft 328 kts 71°
2026-04-21 20:32 44.16827 8.83027 15006 ft 308 kts 71°
2026-04-21 20:32 44.17352 8.85904 15007 ft 311 kts 71°
2026-04-21 20:32 44.17889 8.88838 15010 ft 311 kts 71°
2026-04-21 20:32 44.18413 8.91746 15011 ft 311 kts 71°
2026-04-21 20:33 44.18937 8.94662 15014 ft 312 kts 71°
2026-04-21 20:33 44.19470 8.97619 15015 ft 312 kts 71°
2026-04-21 20:33 44.19994 9.00532 15017 ft 312 kts 71°
2026-04-21 20:33 44.20520 9.03458 15018 ft 312 kts 71°
2026-04-21 20:34 44.21044 9.06384 14981 ft 312 kts 71°
2026-04-21 20:34 44.21538 9.09259 14855 ft 297 kts 73°
2026-04-21 20:34 44.21551 9.12105 14595 ft 299 kts 100°
2026-04-21 20:34 44.20715 9.14734 14397 ft 295 kts 127°
2026-04-21 20:35 44.19276 9.16663 14248 ft 288 kts 145°
2026-04-21 20:35 44.17674 9.18352 14170 ft 287 kts 146°
2026-04-21 20:35 44.16074 9.20025 14084 ft 288 kts 146°
2026-04-21 20:35 44.14494 9.21695 14027 ft 287 kts 146°
2026-04-21 20:36 44.12908 9.23375 14029 ft 287 kts 146°
2026-04-21 20:36 44.11303 9.25069 14028 ft 288 kts 146°
2026-04-21 20:36 44.09720 9.26737 14030 ft 288 kts 146°
2026-04-21 20:36 44.08114 9.28264 13981 ft 272 kts 158°
2026-04-21 20:37 44.06321 9.28774 13981 ft 256 kts 186°
2026-04-21 20:37 44.04635 9.28271 14007 ft 246 kts 211°
2026-04-21 20:37 44.03268 9.26928 14020 ft 238 kts 233°
2026-04-21 20:37 44.02401 9.25031 14021 ft 228 kts 253°
2026-04-21 20:38 44.02103 9.22916 13964 ft 224 kts 273°
2026-04-21 20:38 44.02367 9.20823 13967 ft 218 kts 291°
2026-04-21 20:38 44.03138 9.19000 13968 ft 219 kts 309°
2026-04-21 20:38 44.04286 9.17627 13979 ft 220 kts 321°
2026-04-21 20:39 44.05507 9.16347 13985 ft 220 kts 319°
2026-04-21 20:39 44.06712 9.15068 13970 ft 219 kts 320°
2026-04-21 20:39 44.07929 9.13783 13968 ft 219 kts 320°
2026-04-21 20:39 44.09149 9.12496 13970 ft 219 kts 320°
2026-04-21 20:40 44.10355 9.11225 13969 ft 219 kts 320°
2026-04-21 20:40 44.11711 9.10220 13933 ft 224 kts 338°
2026-04-21 20:40 44.13264 9.09966 13950 ft 233 kts 357°
2026-04-21 20:40 44.14858 9.10553 13839 ft 239 kts 18°
2026-04-21 20:41 44.16203 9.11994 13295 ft 256 kts 43°
2026-04-21 20:41 44.17061 9.14176 12897 ft 263 kts 69°
2026-04-21 20:41 44.17195 9.16737 12489 ft 267 kts 96°
2026-04-21 20:41 44.16548 9.19116 12095 ft 266 kts 123°
2026-04-21 20:42 44.15263 9.20929 11733 ft 259 kts 144°
2026-04-21 20:42 44.13844 9.22408 11388 ft 256 kts 146°
2026-04-21 20:42 44.12407 9.23907 11017 ft 255 kts 145°
2026-04-21 20:42 44.11010 9.25380 10667 ft 252 kts 144°
2026-04-21 20:43 44.09625 9.26839 10323 ft 250 kts 144°
2026-04-21 20:43 44.08169 9.28236 9949 ft 254 kts 156°
2026-04-21 20:43 44.06526 9.28766 9920 ft 235 kts 180°
2026-04-21 20:43 44.04916 9.28428 9949 ft 233 kts 204°
2026-04-21 20:44 44.03559 9.27317 9959 ft 225 kts 225°
2026-04-21 20:44 44.02598 9.25638 9913 ft 216 kts 245°
2026-04-21 20:44 44.02138 9.23697 9414 ft 216 kts 264°
2026-04-21 20:44 44.02192 9.21631 9009 ft 213 kts 282°
2026-04-21 20:45 44.02747 9.19723 8598 ft 213 kts 301°
2026-04-21 20:45 44.03735 9.18199 8197 ft 214 kts 319°
2026-04-21 20:45 44.04916 9.16971 7824 ft 214 kts 321°
2026-04-21 20:45 44.06106 9.15713 7446 ft 214 kts 321°
2026-04-21 20:46 44.07286 9.14462 7082 ft 214 kts 322°
2026-04-21 20:46 44.08468 9.13216 6721 ft 214 kts 322°
2026-04-21 20:46 44.09660 9.11959 6364 ft 213 kts 322°
2026-04-21 20:46 44.10874 9.10728 5992 ft 220 kts 328°
2026-04-21 20:47 44.12264 9.10052 5990 ft 211 kts 349°
2026-04-21 20:47 44.13751 9.10064 5990 ft 215 kts
2026-04-21 20:47 44.15150 9.10797 5992 ft 218 kts 29°
2026-04-21 20:47 44.16301 9.12194 5982 ft 220 kts 50°
2026-04-21 20:48 44.17022 9.14065 5986 ft 222 kts 70°
2026-04-21 20:48 44.17223 9.16173 5991 ft 224 kts 91°
2026-04-21 20:48 44.16868 9.18269 5989 ft 223 kts 113°
2026-04-21 20:48 44.15990 9.20059 5997 ft 224 kts 134°
2026-04-21 20:49 44.14768 9.21417 5958 ft 225 kts 144°
2026-04-21 20:49 44.13521 9.22728 5807 ft 226 kts 143°
2026-04-21 20:49 44.12292 9.24071 5627 ft 232 kts 137°
2026-04-21 20:49 44.11537 9.26089 5314 ft 238 kts 97°
2026-04-21 20:50 44.11869 9.28249 4962 ft 228 kts 57°
2026-04-21 20:50 44.12989 9.29710 4981 ft 220 kts 29°
2026-04-21 20:50 44.14455 9.30193 4990 ft 220 kts 358°
2026-04-21 20:50 44.15933 9.29691 5027 ft 221 kts 341°
2026-04-21 20:51 44.17407 9.28982 5023 ft 222 kts 342°
2026-04-21 20:51 44.18823 9.28393 5009 ft 204 kts 344°
2026-04-21 20:51 44.20142 9.27870 5003 ft 193 kts 344°
2026-04-21 20:51 44.21432 9.27344 4994 ft 191 kts 343°
2026-04-21 20:52 44.22696 9.26825 4998 ft 191 kts 343°
2026-04-21 20:52 44.23985 9.26296 5006 ft 191 kts 343°
2026-04-21 20:52 44.25266 9.25771 5004 ft 193 kts 343°
2026-04-21 20:52 44.26566 9.25236 5003 ft 193 kts 343°
2026-04-21 20:53 44.27719 9.24320 5006 ft 192 kts 323°
2026-04-21 20:53 44.28814 9.23245 5008 ft 193 kts 328°
2026-04-21 20:53 44.29984 9.22268 5014 ft 194 kts 328°
2026-04-21 20:53 44.31108 9.21238 5008 ft 194 kts 323°
2026-04-21 20:54 44.32159 9.20077 4992 ft 194 kts 321°
2026-04-21 20:54 44.33228 9.18882 4872 ft 196 kts 321°
2026-04-21 20:54 44.34061 9.17434 4574 ft 199 kts 290°
2026-04-21 20:54 44.34354 9.15604 4506 ft 189 kts 284°
2026-04-21 20:55 44.34742 9.13800 4346 ft 196 kts 287°
2026-04-21 20:55 44.35138 9.11999 4070 ft 194 kts 287°
2026-04-21 20:55 44.35534 9.10192 3793 ft 193 kts 287°
2026-04-21 20:55 44.35922 9.08425 3525 ft 190 kts 287°
2026-04-21 20:56 44.36305 9.06680 3258 ft 187 kts 288°
2026-04-21 20:56 44.36684 9.04952 2993 ft 186 kts 288°
2026-04-21 20:56 44.37065 9.03214 2727 ft 183 kts 287°
2026-04-21 20:56 44.37418 9.01604 2470 ft 165 kts 287°
2026-04-21 20:57 44.37736 9.00156 2240 ft 154 kts 287°
2026-04-21 20:57 44.38054 8.98702 2026 ft 154 kts 287°
2026-04-21 20:57 44.38367 8.97276 1812 ft 154 kts 287°
2026-04-21 20:57 44.38680 8.95847 1598 ft 154 kts 287°
2026-04-21 20:58 44.38994 8.94414 1376 ft 154 kts 287°
2026-04-21 20:58 44.39310 8.92980 1166 ft 154 kts 287°
2026-04-21 20:58 44.39625 8.91551 950 ft 154 kts 286°
2026-04-21 20:58 44.39941 8.90188 726 ft 136 kts 289°
2026-04-21 20:59 44.40247 8.88993 527 ft 127 kts 288°
2026-04-21 20:59 44.40485 8.87819 368 ft 124 kts 284°
2026-04-21 20:59 44.40707 8.86668 212 ft 124 kts 285°
2026-04-21 20:59 44.40937 8.85500 34 ft 123 kts 285°
2026-04-21 21:00 44.41137 8.84493 17 ft 86 kts 285°
2026-04-21 21:00 44.41250 8.83906 16 ft 34 kts 285°
2026-04-21 21:00 44.41305 8.83791 16 ft 14 kts 322°
2026-04-21 21:00 44.41378 8.83741 15 ft 10 kts
2026-04-21 21:01 44.41416 8.83794 15 ft 7 kts 70°
2026-04-21 21:01 44.41414 8.83857 15 ft 6 kts 105°
2026-04-21 21:01 44.41401 8.83924 15 ft 9 kts 104°
2026-04-21 21:01 44.41381 8.84025 15 ft 11 kts 105°
2026-04-21 21:02 44.41360 8.84128 12 ft 11 kts 105°
2026-04-21 21:02 44.41343 8.84216 13 ft 8 kts 105°
2026-04-21 21:02 44.41330 8.84282 14 ft 5 kts 105°
2026-04-21 21:02 44.41316 8.84354 15 ft 9 kts 105°
2026-04-21 21:03 44.41323 8.84424 15 ft 8 kts 50°
2026-04-21 21:03 44.41377 8.84523 14 ft 14 kts 52°
2026-04-21 21:03 44.41432 8.84623 14 ft 13 kts 52°
2026-04-21 21:03 44.41492 8.84733 14 ft 14 kts 52°
2026-04-21 21:04 44.41545 8.84829 14 ft 11 kts 53°
2026-04-21 21:04 44.41590 8.84905 14 ft 9 kts 47°
2026-04-21 21:04 44.41629 8.84966 14 ft 8 kts 49°
2026-04-21 21:04 44.41665 8.85024 14 ft 9 kts 49°
2026-04-21 21:05 44.41707 8.85080 15 ft 7 kts 53°
2026-04-21 21:05 44.41736 8.85133 15 ft 7 kts 53°
2026-04-21 21:05 44.41750 8.85181 15 ft 4 kts 99°
2026-04-21 21:05 44.41745 8.85206 15 ft 5 kts 105°
2026-04-21 21:06 44.41740 8.85235 15 ft 2 kts 105°
2026-04-21 21:06 44.41739 8.85237 15 ft 0 kts 105°